Location: Hains Lake
(37.8540°N, 99.8578°W)
Time: 23:25:17
(UTC+00:00)

Explorer 7 - Pass Details

Date: 28 April 2021
Orbit: 484 x 677 km, 50.3° (Epoch: 14 May)

Event Time Altitude Azimuth Distance (km) Brightness Sun altitude
Rises 05:10:13 0° 310° (NW) 2,734 11.2 -34.1°
Reaches altitude 10° 05:12:28 10° 316° (NW) 1,870 10.2 -34.3°
Enters shadow 05:13:37 18° 322° (NW) 1,448 9.6 -34.4°
